Regional Weather Roundup
Issued by NWS

Home | Current Version | Previous Version | Text Only | Print | Product List | Glossary Off
Versions: 1 2 3 4 5 6 7 8 9 10 11 12 13 14 15 16 17 18 19 20 21 22 23 24 25 26 27 28 29 30 31 32 33 34 35 36 37 38 39 40 41 42 43 44 45 46 47 48 49 50

000
ASUS43 KIND 031859
RWRIN

WEATHER ROUNDUP FOR INDIANA
NATIONAL WEATHER SERVICE INDIANAPOLIS IN
300 PM EDT THU SEP 03 2015

NOTE: "FAIR" INDICATES FEW OR NO CLOUDS BELOW 12,000 FEET WITH NO
SIGNIFICANT WEATHER AND/OR OBSTRUCTIONS TO VISIBILITY.

* - STATION DOES NOT REPORT WEATHER SUCH AS PRECIPITATION OR FOG.

+ - STATION NOT QUALITY CONTROLLED BY THE NATIONAL WEATHER SERVICE.
    USE DATA WITH CAUTION...ESPECIALLY DEWPOINT AND RELATIVE
    HUMIDITY OBSERVATIONS.

INZ001>003-010>013-019-020-032000-
NORTHWEST INDIANA

CITY           SKY/WX    TMP DP  RH WIND       PRES   REMARKS
GARY /AIRPORT/ PTSUNNY   90  64  43 W14       29.93F
KNOX *+        PTSUNNY   86  64  48 W8        29.94F
MONTICELLO +   PTSUNNY   88  69  53 SW9       29.95F
RENSSELAER +   PTSUNNY   90  68  48 W10       29.95F

$$

LMZ046-743>745-032000-
SOUTHERN LAKE MICHIGAN

STATION/POSITION TIME  TEMP    WIND        PRES    WAVE
                       AIR SEA DIR/SP/G            HT
                 (UTC) (F)     (DEG/KT/KT) (MB)    (FT)
BURNS HARBOR     1800   85     240/ 15/ 17 1013.9F
MICHIGAN CITY    1800   81     210/  7/  7   N/A
5NW MICH CITY    1800   79 74  240/  2/  4   N/A     1

$$

INZ004-005-014>016-021>024-032000-
NORTH CENTRAL INDIANA

CITY           SKY/WX    TMP DP  RH WIND       PRES   REMARKS
GOSHEN         MOSUNNY   88  68  51 SW13      29.94F
SOUTH BEND     MOSUNNY   87  68  52 SW14      29.94F

$$

INZ006>009-017-018-025>027-032000-
NORTHEAST INDIANA

CITY           SKY/WX    TMP DP  RH WIND       PRES   REMARKS
ANGOLA *+      MOSUNNY   90  72  55 W9        29.95F HX  96
FORT WAYNE     MOSUNNY   88  66  48 SW13      29.96F

$$

INZ028-029-035-036-043>045-051>053-032000-
WEST CENTRAL INDIANA

CITY           SKY/WX    TMP DP  RH WIND       PRES   REMARKS
CRAWFORDSVL +  SUNNY     86  62  43 SW7       29.98F
GREENCASTLE +  MOSUNNY   88  64  45 S5        30.00F
LAFAYETTE      MOSUNNY   90  65  43 W13       29.95F
TERRE HAUTE    MOSUNNY   91  66  43 W10       29.98F

$$

INZ030>032-037>040-046>048-054>057-064-065-032000-
CENTRAL INDIANA

CITY           SKY/WX    TMP DP  RH WIND       PRES   REMARKS
ANDERSON       MOSUNNY   88  57  35 W6        30.00
FRANKFORT +    MOSUNNY   91  69  47 SW9       30.00F HX  95
GREENWOOD *+   SUNNY     88  63  42 W6        30.00
INDIANAPOLIS   MOSUNNY   90  65  43 SW12      29.98F
-EAGLE CREEK   MOSUNNY   89  65  44 SW12      29.98F
KOKOMO *+      MOSUNNY   90  66  45 W16G23    29.97F
MT COMFORT *+  SUNNY     88  54  31 W8        29.99F
SHELBYVILLE    SUNNY     91  65  41 VRB7      29.99F
ZIONSVILLE +   PTSUNNY   89  65  44 SW9       29.99F

$$

INZ033-034-041-042-049-050-058-059-032000-
EAST CENTRAL INDIANA

CITY           SKY/WX    TMP DP  RH WIND       PRES   REMARKS
MUNCIE         SUNNY     86  68  54 W9        29.98F

$$

INZ060-061-067>069-081>083-085>088-032000-
SOUTHWEST INDIANA

CITY           SKY/WX    TMP DP  RH WIND       PRES   REMARKS
EVANSVILLE     MOSUNNY   91  67  44 CALM      29.99F
HUNTINGBURG *+ MOSUNNY   91  68  46 NW5       29.99F HX  95

$$

INZ062-063-066-070>080-084-089>092-032000-
SOUTH CENTRAL AND SOUTHEAST INDIANA

CITY           SKY/WX    TMP DP  RH WIND       PRES   REMARKS
BLOOMINGTON    SUNNY     89  65  44 VRB3      30.00F
SEYMOUR +      MOSUNNY   93  63  36 SW7       29.98F

$$




USA.gov is the U.S. government's official web portal to all federal, state and local government web resources and services.